Regional Weather Roundup
Issued by NWS Bismarck, ND

Home | Current Version | Previous Version | Graphics & Text | Print | Product List | Glossary On
Versions: 1 2 3 4 5 6 7 8 9 10 11 12 13 14 15 16 17 18 19 20 21 22 23 24 25 26 27 28 29 30 31 32 33 34 35 36 37 38 39 40 41 42 43 44 45 46 47 48 49 50
000
ASUS43 KBIS 271520
RWRBIS

NWR BROADCAST TEXT
NATIONAL WEATHER SERVICE BISMARCK ND
900 AM CST TUE JAN 27 2015

NOTE: "FAIR" INDICATES FEW OR NO CLOUDS BELOW 12,000 FEET WITH NO
SIGNIFICANT WEATHER AND/OR OBSTRUCTIONS TO VISIBILITY.


CITY           SKY/WX    TMP DP  RH WIND       PRES   REMARKS
WILLISTON      MOCLDY    28  26  92 S3        29.84R
MINOT          PTCLDY    29  25  85 SE3       29.84S
MINOT AFB      PTCLDY    26  26 100 SE7       29.84S WCI  18
BISMARCK       CLEAR     30  28  92 SE7       29.91S
DICKINSON      CLEAR     38  30  73 W8        29.84R
GARRISON         N/A     31  29  92 S6        29.85S
HETTINGER ARPT PTCLDY    35  28  75 CALM      29.89S
JAMESTOWN      PTCLDY    29  27  92 S9        29.97F
BEACH          FAIR      41  32  70 SW14      29.88S
CARRINGTON     FAIR      28  28 100 MISG      29.95R
CROSBY         FAIR      34  34 100 S6        29.81S
HARVEY         FAIR      28  27  93 SE9       29.91R WCI  20
HAZEN          FAIR      30  27  86 CALM      29.87F
LINTON         FAIR      32  32 100 SE8       29.93R
MANDAN         FAIR      32  30  93 S9        29.90F
OAKES            N/A     27  27 100 SE8       30.02S WCI  18
RUGBY          FAIR      32  28  86 S15G21    29.89R
STANLEY        FAIR      28  28 100 CALM      29.83R
TIOGA          FAIR      27  27 100 CALM      29.85S
WATFORD CITY   FAIR      32  32 100 SW8       29.82S
$$

CITY           SKY/WX    TMP DP  RH WIND       PRES   REMARKS
GRAND FORKS    FOG       27  26  96 S7        30.05R VSB 3/4 WCI  19
GRAND FORKS AF CLOUDY    26  24  94 S8        30.05R WCI  17
DEVILS LAKE    CLEAR     27  25  93 SE10      29.94F WCI  17
FARGO          FOG       28  26  92 S13G20    30.07R VSB 1   WCI  17
CANDO          FAIR      25  25 100 SE10      29.94S WCI  15
CAVALIER       CLOUDY    25  25 100 S10       30.01S FOG     WCI  15
GWINNER        CLOUDY    30  30 100 SE9       30.05S VSB 0
LANGDON        PTSUNNY   30  28  93 S16       29.93F WCI  19
ROLLA          FAIR      27  27 100 S12       29.90S WCI  16
WALHALLA         N/A     25  25 100 SE8       29.99S WCI  16
$$

CITY           SKY/WX    TMP DP  RH WIND       PRES   REMARKS
ABERDEEN       CLEAR     32  29  88 SE8       30.03R
MOBRIDGE       CLEAR     32  29  88 SE9       29.92S
BUFFALO          N/A     41  28  60 W12       29.86R
RAPID CITY     PTCLDY    51  25  36 NW13      29.96R
GLASGOW        PTCLDY    35  29  78 S5        29.84S
SIDNEY         CLEAR     30  28  93 CALM      29.87S
WOLF POINT     PTCLDY    30  27  88 W8        29.86R
GLENDIVE       CLEAR     34  28  80 S5        29.89R
MILES CITY     PTCLDY    34  28  79 S10       29.91S
BAKER          CLEAR     31  27  85 CALM      29.92R
$$

CITY           SKY/WX    TMP DP  RH WIND       PRES   REMARKS
BILLINGS       MOCLDY    46  27  47 SW16      29.94R
GREAT FALLS    CLOUDY    47  28  47 SW13      29.90S
REGINA         CLOUDY    25  25 100 SE10      29.77F WCI  15
ESTEVAN        CLOUDY    25  23  93 SE5       29.80S WCI  19
$$



USA.gov is the U.S. government's official web portal to all federal, state and local government web resources and services.